Regional Weather Roundup
Issued by NWS Cleveland, OH

Home | Current Version | Previous Version | Text Only | Print | Product List | Glossary On
Versions: 1 2 3 4 5 6 7 8 9 10 11 12 13 14 15 16 17 18 19 20 21 22 23 24 25 26 27 28 29 30 31 32 33 34 35 36 37 38 39 40 41 42 43 44 45 46 47 48 49 50
000
ASUS41 KCLE 220912
RWRCLE
OHIO REGIONAL WEATHER ROUNDUP
NATIONAL WEATHER SERVICE WILMINGTON, OH
500 AM EDT SAT JUL 22 2017

NOTE: "FAIR" INDICATES FEW OR NO CLOUDS BELOW 12,000 FEET WITH NO
SIGNIFICANT WEATHER AND/OR OBSTRUCTIONS TO VISIBILITY.

OHZ001>008-015>018-024>027-034-035-043-044-221000-
   NORTHWEST OHIO

CITY           SKY/WX    TMP DP  RH WIND       PRES   REMARKS
DEFIANCE       HVY RAIN N/A N/A N/A SE5       29.86F
FINDLAY        RAIN      74  70  87 S3        29.90R FOG
TOLEDO EXPRESS LGT RAIN  72  72 100 S3        29.87F
TOLEDO EXEC    MOCLDY    76  74  93 SW6       29.89R
LIMA           TSTM      71  71 100 N9        29.92S FOG
$$

OHZ009>014-019>023-028>033-038-089-221000-
   NORTHEAST OHIO

CITY           SKY/WX    TMP DP  RH WIND       PRES   REMARKS
CLE-HOPKINS    MOCLDY    76  67  73 SE5       29.91F
CLE-LAKEFRONT  FAIR      77  64  64 SE8       29.88F
CUY CO. ARPT   NOT AVBL
LORAIN-ELYRIA  FAIR      71  65  81 SE5       29.90F
ASHTABULA      FAIR      67  66  97 SE3       29.93F
AKRON-CANTON   CLOUDY    75  71  87 S7        29.93S FOG
WOOSTER        FOG       70  70 100 CALM      29.93S VSB 1/2
MANSFIELD      FAIR      73  72  96 S3        29.93S
YOUNGSTOWN     CLOUDY    67  65  93 E6        29.93F
$$

OHZ042-051>053-060>062-070>072-077>081-221000-
  SOUTHWEST OHIO

CITY           SKY/WX    TMP DP  RH WIND       PRES   REMARKS
CINC-COVINGTON CLOUDY    77  75  93 SW5       29.91S
CINC-LUNKEN    MOCLDY    74  74 100 CALM      29.90F
HAMILTON       FAIR      75  73  93 CALM      29.90S
DAYTON         CLOUDY    74  72  93 S12       29.89F
WRIGHT-PAT AFB MOCLDY    73  73 100 S7        29.88F THUNDER
DAYTON GENERAL FAIR      75  73  93 S8        29.90S
WILMINGTON     FAIR      74  74 100 S6        29.92S
$$

OHZ036-037-039>041-045>050-054>059-063>069-073>076-082>088-221000-
  CENTRAL AND SOUTHEAST OHIO

CITY           SKY/WX    TMP DP  RH WIND       PRES   REMARKS
COLUMBUS       TSTM      74  73  97 S3        29.92S
OSU AIRPORT    LGT RAIN  74  74 100 S9        29.90F
BOLTON FIELD   CLOUDY    73  72  99 CALM      29.92S
RICKENBACK AFB CLOUDY    71  71 100 CALM      29.92R
NEWARK         CLOUDY    72  70  93 CALM      29.93R
MARION         FAIR      73  71  93 SE6       29.91F FOG
LANCASTER      TSTM      71  71 100 SE5       29.93S
ZANESVILLE     FOG       72  70  93 SE3       29.93F VSB 1/4
NEW PHILLY     CLOUDY    74  74 100 S3        29.94S
$$



USA.gov is the U.S. government's official web portal to all federal, state and local government web resources and services.